星链-30486 (STARLINK-30486 )

导读

STARLINK-30486是美国SpaceX公司星链互联网星座中的一颗卫星,于2023年10月05日发射。星链项目旨在通过低轨卫星星座,为全球缺乏传统网络基础设施的地区提供高速低延迟宽带互联网服务。该卫星采用平板设计,搭载霍尔推进器,具备自主避撞能力,寿命末期将主动离轨坠入大气层烧毁,减少空间碎片影响。

基本信息
目录编号:
58009
目录名称:
STARLINK-30486
国际标识:
2023-153U
轨道中心:
EARTH
卫星名称:
星链-30486
卫星全名:
星链-30486 (STARLINK-30486 )
卫星状态:
在轨 (已飞行1072 天)
发射日期:
2023-10-05 UTC
国别 :
美国 (US)
星等 :
--
该卫星已列入 空间交会检测服务 Space Conjunction Data Service (SCDS) ,当前飞行风险评估等级: 无高风险
轨道信息
数据来源 国际轨道数据
星历时间: 2026-09-11T07:04:33+0800
9小时前
查看轨道信息
半长轴: 6861.196km
偏心率: 0.0001349
轨道倾角: 43.005°
近地点辐角 258.789°
升交点赤经 100.527°
平近点角 101.281°
近地点: 482.133km
远地点: 483.985km
周期: 94.267分钟
每日圈数: 15.275767
详细信息
固有亮度:
5
最大亮度:
0.3
卫星平台:
Starlink v2.0 mini
覆盖范围:
全球
运营商:
太空探索技术公司
运营商所在国:
美国
制造商(研发单位):
太空探索技术公司
制造商所在国:
美国
使用方式:
暂无
卫星简介
星链(Starlink)计划是由太空探索技术公司(SpaceX)提出的一个巨型低轨卫星互联网星座项目,计划在2019年至2024年间在太空搭建由约1.2万颗卫星组成的“星链”网络,其中1584颗将部署在地球上空550千米处的近地轨道,并从2020年开始工作。该卫星仍在工作。
2D轨道图
3D轨道图
轨道高度分析图
轨道倾角分析图
轨道综合分析图
查看轨道综合分析图
交会数据列表
事件ID 空间交会对象 最接近时刻(TCA) 交会距离 交会风险概率(CRP) 交会风险指数(CRI) 操作
CDM_260912-230405-800906-647321
2026-09-12T
23:04:44+0000
0.213 km
中距离
6.45799E-4 高风险 0.91
CDM_260913-201205-800906-651921
2026-09-13T
20:12:53+0000
0.707 km
远距离
6.406345E-5 中风险 0.71
CDM_260913-230305-800906-712521
2026-09-13T
23:03:13+0000
0.924 km
远距离
2.320047E-5 中风险 0.62
CDM_260912-111805-800906-647321
2026-09-12T
11:18:36+0000
1.059 km
极远距离
1.618966E-5 中风险 0.59
CDM_260913-183805-800906-651921
2026-09-13T
18:38:43+0000
1.252 km
极远距离
9.458013E-6 低风险 0.55
CDM_260912-125205-800906-647321
2026-09-12T
12:52:45+0000
2.545 km
极远距离
1.306936E-6 低风险 0.37
CDM_260913-214705-800906-651921
2026-09-13T
21:47:02+0000
2.659 km
极远距离
1.261341E-6 低风险 0.37
CDM_260912-213005-800906-647321
2026-09-12T
21:30:35+0000
2.837 km
极远距离
1.111032E-6 低风险 0.36
与全量物体交会距离演化趋势
与全量物体交会风险概率演化趋势